User: anonymous   Login
Location: ScottNC Observatory
(36.0892°N, 80.4832°W)
Time: 08:49:36
(UTC-04:00)
Language:

AO-92 - Orbit

View from above orbital plane
View from above orbital plane
View from above satellite
View from above satellite

Ground track
Ground track

The orbit data is extracted from the following two-line orbital elements,

1 43137U 18004AC  19115.17692170  .00001046  00000-0  46999-4 0  9993
2 43137  97.4915 183.0915 0011056  88.8268 271.4236 15.23345273 71193
Epoch (UTC): 25 April 2019 04:14:46
Eccentricity: 0.0011056
inclination: 97.4915°
perigee height: 488 km
apogee height: 503 km
right ascension of ascending node: 183.0915°
argument of perigee: 88.8268°
revolutions per day: 15.23345273
mean anomaly at epoch: 271.4236°
orbit number at epoch: 7119

The dashed part of the orbit path shows where the satellite is in the earth's shadow,  

DLR